Weather in Maha Sarakham

Thailand     16°11′37″N   103°17′29″E
temp.,
°C
wind,
m/s
gust,
m/s
humid.,
%
clouds,
%
prec.,
mm/h
press.,
hPa
HPBL,
m
9 march, tue
tue901:00+27ese34560 0.3 101274
04:00+25e23630 0.0 101280
07:00+24e48730 0.0 1014323
10:00+29e34540 0.0 1016872
13:00+34ese22360 0.0 10122241
16:00+34sse232846 0.0 10092797
19:00+31sse233539 0.0 101035
22:00+30se12400 0.0 101324
10 march, wed
wed1001:00+27e510580 0.0 1012319
04:00+25e49650 0.0 1011312
07:00+24e410670 0.0 1014455
10:00+30ese45490 0.0 1016974
13:00+34se223637 0.0 10121818
16:00+35ene222819 0.0 10082704
19:00+32s113313 0.0 101025
22:00+30ne11351 0.0 101224
11 march, thu
thu1101:00+27e510565 0.0 1011315
04:00+25ene596333 0.0 1011303
07:00+24e5116917 0.0 1014481
10:00+30ese46480 0.0 1016837
13:00+34ese33330 0.0 10122132
16:00+36e24250 0.0 10082975
19:00+32ene11303 0.0 101024
22:00+30ne48320 0.0 1012226
12 march, fri
fri1201:00+26e410550 0.0 1012462
04:00+24e49640 0.0 1012391
07:00+23e514680 0.0 1014506
10:00+30ese45450 0.0 1015863
13:00+34e23300 0.0 10121759
16:00+36e24220 0.0 10082943
19:00+32e12250 0.0 100924
22:00+30nne22270 0.0 101131
13 march, sat
sat1301:00+26e49570 0.0 1011440
04:00+24e511650 0.0 1012400
07:00+23e613680 0.0 1014562
10:00+30ese56440 0.0 1015865
13:00+34se33300 0.0 10111786
16:00+36ene23240 0.0 10072524
19:00+32se12300 0.0 100824
22:00+30e12310 0.0 101029